CST,Max TemperatureF,Mean TemperatureF,Min TemperatureF,Max Dew PointF,MeanDew PointF,Min DewpointF,Max Humidity, Mean Humidity, Min Humidity, Max Sea Level PressureIn, Mean Sea Level PressureIn, Min Sea Level PressureIn, Max VisibilityMiles, Mean VisibilityMiles, Min VisibilityMiles, Max Wind SpeedMPH, Mean Wind SpeedMPH, Max Gust SpeedMPH,PrecipitationIn, CloudCover, Events, WindDirDegrees
2013-1-1,28,21,14,21,18,11,92,83,74,30.36,30.29,30.16,,,,18,8,23,0.02,,,350
2013-1-2,38,23,8,27,18,6,92,76,59,30.38,30.28,30.21,,,,21,6,25,0.00,,,318
2013-1-3,36,26,16,21,16,13,92,72,52,30.52,30.45,30.32,,,,14,6,17,0.00,,,327
2013-1-4,47,29,11,27,19,7,88,69,49,30.47,30.36,30.21,,,,15,5,18,0.00,,,213
2013-1-5,46,37,28,29,26,20,92,69,45,30.35,30.22,30.13,,,,17,9,22,0.00,,,248
2013-1-6,51,36,21,25,22,17,85,62,33,30.45,30.36,30.27,,,,10,5,,0.00,,,241
2013-1-7,54,41,27,26,23,21,81,55,28,30.25,30.12,30.03,,,,23,11,31,0.00,,,180
2013-1-8,59,44,29,31,28,24,85,59,33,30.23,30.04,29.95,,,,16,7,20,0.00,,,171
2013-1-9,53,41,28,36,29,25,85,65,44,30.42,30.31,30.21,,,,16,8,23,0.01,,,19
2013-1-10,47,44,41,46,42,38,100,85,70,30.18,29.91,29.74,,,,16,7,20,0.53,,,138
2013-1-11,59,48,37,45,38,18,100,64,28,29.86,29.64,29.52,,,,25,12,33,0.00,,,188
2013-1-12,38,29,20,27,14,9,81,62,42,30.17,30.06,29.90,,,,25,17,32,0.00,,,360
2013-1-13,30,21,12,11,7,3,80,57,34,30.41,30.31,30.16,,,,20,8,24,0.00,,,355
2013-1-14,34,23,12,15,10,8,92,64,35,30.52,30.42,30.35,,,,13,4,16,0.00,,,60
2013-1-15,37,25,13,16,13,9,92,64,35,30.36,30.31,30.24,,,,8,3,11,0.00,,,84
2013-1-16,55,34,13,30,22,9,92,65,38,30.28,30.18,30.11,,,,18,4,22,0.00,,,336
2013-1-17,58,42,26,30,27,24,85,58,30,30.54,30.44,30.32,,,,10,6,13,0.00,,,261
2013-1-18,63,47,30,31,29,26,85,56,27,30.40,30.22,30.05,,,,24,11,34,0.00,,,185
2013-1-19,65,45,24,31,26,21,92,56,19,30.26,30.13,30.02,,,,16,6,20,0.00,,,2
2013-1-20,56,41,26,28,23,13,81,58,35,30.40,30.26,30.17,,,,24,8,32,0.00,,,54
2013-1-21,39,27,14,13,11,9,80,55,30,30.48,30.38,30.28,,,,15,6,20,0.00,,,140
2013-1-22,47,33,19,22,19,14,77,57,37,30.28,30.24,30.17,,,,13,6,17,0.00,,,115
2013-1-23,58,39,19,31,23,16,84,60,36,30.30,30.22,30.13,,,,23,6,31,0.00,,,23
2013-1-24,46,31,25,20,14,10,68,50,31,30.36,30.26,30.12,,,,18,8,24,0.00,,,41
2013-1-25,52,45,37,26,25,24,64,50,35,30.25,30.19,30.13,,,,7,3,,0.00,,,116
2013-1-26,49,39,28,42,33,23,100,77,53,30.23,30.13,29.97,,,,21,8,27,0.00,,,148
2013-1-27,74,58,42,53,46,38,100,69,38,29.97,29.79,29.66,,,,25,13,34,0.00,,,174
2013-1-28,73,53,33,57,44,32,100,66,31,29.81,29.72,29.62,,,,29,11,37,0.00,,,174
2013-1-29,57,45,33,51,35,29,100,84,67,29.70,29.62,29.56,,,,23,13,31,0.00,,,355
2013-1-30,37,28,18,29,20,13,92,68,44,30.05,29.95,29.73,,,,25,13,33,0.00,,,333
2013-1-31,42,30,17,25,16,9,81,67,52,30.48,30.23,30.01,,,,24,8,31,0.00,,,27